Location: ????????
(38.4362°N, 22.8767°E)
Time: 01:55:59
(UTC+00:00)

ADEOS II - Visible Passes

Search period start: 19 July 2024 00:00
Search period end: 29 July 2024 00:00
Orbit: 796 x 797 km, 98.7° (Epoch: 18 July)

Date Brightness Start Highest point End Pass type
(mag) Time Alt. Az. Time Alt. Az. Time Alt. Az.
19 Jul 3.3 00:06:04 10° NE 00:10:44 32° E 00:11:51 29° ESE visible
19 Jul 3.2 01:45:45 10° N 01:50:13 29° WNW 01:52:43 20° WSW visible
19 Jul 4.1 23:39:33 10° NE 23:43:02 18° E 23:43:58 17° ESE visible
20 Jul 2.4 01:17:49 10° N 01:22:54 52° WNW 01:24:49 34° SW visible
21 Jul 2.0 00:50:12 10° NNE 00:55:28 87° ESE 00:56:56 49° S visible
21 Jul 4.1 02:32:32 10° NW 02:34:18 12° WNW 02:36:03 10° W visible
22 Jul 2.7 00:22:52 10° NNE 00:27:56 47° E 00:29:02 41° SE visible
22 Jul 3.6 02:03:21 10° NNW 02:07:10 21° WNW 02:09:54 14° WSW visible
22 Jul 3.6 23:55:57 10° NE 00:00:17 26° E 00:01:07 25° ESE visible
23 Jul 2.9 01:35:09 10° N 01:39:55 36° WNW 01:41:59 26° WSW visible
23 Jul 4.3 23:29:53 10° ENE 23:32:31 14° E 23:33:13 13° E visible
24 Jul 2.1 01:07:21 10° N 01:12:33 66° WNW 01:14:05 44° SW visible
25 Jul 2.2 00:39:50 10° NNE 00:45:04 69° ESE 00:46:11 53° SSE visible
25 Jul 4.0 02:21:15 10° NNW 02:24:03 15° WNW 02:26:51 10° W visible
26 Jul 3.0 00:12:38 10° NNE 00:17:29 37° E 00:18:16 35° ESE visible
26 Jul 3.3 01:52:37 10° NNW 01:56:52 26° WNW 01:59:08 19° WSW visible
26 Jul 3.9 23:45:56 10° NE 23:49:47 20° E 23:50:21 20° ESE visible
27 Jul 2.5 01:24:35 10° N 01:29:34 45° WNW 01:31:13 34° WSW visible
27 Jul 4.6 23:21:01 10° E 23:21:58 10° E 23:22:26 10° E visible
28 Jul 2.0 00:56:53 10° NNE 01:02:09 82° WNW 01:03:18 56° SSW visible
